Theta_e
343 353 351 352 352 354 361 363 358 360 356 347 351 354 356 355 357 357 353 352 343 342 342 344 341 337 334 330 329 329 328 331 337 343 331 331 329 335 337 333 335 335 334 334 334 337 338 338 338
348 355 354 351 358 362 364 357 360 358 349 348 354 355 355 356 355 356 355 350 342 339 337 338 337 333 330 331 330 327 328 331 339 334 328 323 324 336 334 334 337 335 334 332 333 336 337 339 337
351 353 354 354 358 363 364 359 358 356 354 353 352 353 355 355 355 354 354 351 342 339 336 335 334 331 330 336 336 329 328 330 337 333 341 327 324 328 334 338 339 335 335 334 333 335 335 336 337
351 346 350 357 360 357 359 357 357 357 354 353 353 355 354 354 353 354 353 349 342 341 337 335 331 330 330 337 339 333 329 333 334 329 333 335 327 326 334 340 336 335 335 336 337 333 332 334 338
349 349 354 360 360 360 355 354 356 356 354 353 353 354 354 354 354 353 353 349 343 343 342 341 333 328 329 336 339 338 330 331 332 329 336 337 334 329 332 333 331 334 335 336 335 333 335 333 336
350 353 359 363 361 356 355 353 355 356 355 354 354 354 353 354 353 353 351 346 345 345 346 343 338 328 334 338 339 339 336 330 331 331 337 334 333 331 331 332 330 331 335 336 336 335 334 335 335
349 352 358 359 358 356 354 351 354 356 355 354 354 353 353 353 353 352 350 349 346 345 345 341 341 338 339 339 339 340 338 331 334 332 332 331 335 338 336 337 331 331 332 335 336 337 338 335 336
348 356 359 356 352 356 351 350 353 354 354 353 353 354 352 352 352 351 351 350 347 341 340 339 339 340 340 340 340 340 337 334 329 331 332 331 334 338 339 332 328 334 336 334 334 336 334 336 338
349 357 359 355 350 349 350 351 351 352 353 354 353 353 352 352 352 352 352 351 350 347 340 340 340 340 340 340 340 340 334 334 327 331 330 330 333 339 339 331 334 335 336 337 336 334 331 332 333
349 346 349 349 349 349 347 353 353 353 353 353 351 353 353 352 352 352 352 351 351 350 343 339 340 339 339 338 339 338 331 331 331 332 329 329 333 341 343 340 338 337 337 341 340 336 333 337 340
349 351 349 350 349 349 349 349 353 354 355 352 352 354 353 352 353 352 352 349 349 347 344 341 339 336 333 334 337 330 330 333 334 331 331 334 334 343 344 342 339 336 342 344 343 343 342 344 340
346 347 349 349 347 349 349 347 348 350 352 352 349 354 354 353 353 353 351 350 350 350 349 343 340 334 329 333 333 333 335 332 329 339 340 344 339 340 343 345 343 343 343 344 344 344 345 344 343
347 348 348 347 347 346 347 348 354 355 353 352 350 352 352 352 353 353 351 352 352 351 349 345 337 335 329 329 330 338 333 336 344 336 347 346 342 343 344 344 345 344 343 344 344 343 342 344 344
346 343 347 344 348 348 348 352 355 355 353 350 352 347 350 351 352 351 349 352 352 350 348 343 341 341 342 336 343 342 343 347 346 345 345 348 348 345 345 347 346 345 345 344 343 342 343 344 344
339 339 341 343 345 348 346 347 351 354 352 353 353 351 347 348 349 349 348 349 349 349 346 344 344 345 346 341 346 346 346 348 349 347 343 343 345 343 342 345 344 346 345 343 344 345 345 344 344
337 335 338 339 345 346 343 345 345 355 353 353 353 353 352 352 348 348 347 349 346 347 345 345 345 346 347 344 347 347 348 347 349 347 345 343 343 340 341 342 344 345 345 344 345 345 345 345 344
334 334 335 337 340 343 341 340 343 347 350 349 352 352 354 353 353 350 348 348 347 345 345 344 345 346 348 346 348 348 347 349 348 348 346 345 345 346 345 344 344 346 345 345 345 344 344 345 345
333 336 335 339 340 339 343 342 344 342 344 346 348 346 351 351 352 352 349 347 348 348 345 344 346 346 347 346 349 348 346 345 347 346 347 346 345 346 346 344 345 346 346 345 344 345 345 345 346
333 335 340 340 340 341 338 337 345 343 347 342 341 344 349 349 345 343 352 351 347 348 348 344 345 346 345 346 346 348 347 345 345 343 345 345 348 347 346 347 346 345 345 345 346 346 345 345 346
333 336 340 340 341 340 340 344 345 344 343 346 346 346 347 347 336 339 351 351 350 349 351 345 344 344 345 346 347 346 345 343 342 342 345 346 346 346 347 347 346 346 345 345 347 347 345 345 345
330 332 338 340 341 337 338 338 346 344 342 343 343 344 348 346 339 339 342 351 352 351 351 349 344 344 345 347 346 345 345 340 337 338 341 341 344 346 347 346 347 346 346 344 346 347 346 346 345
330 334 335 337 333 334 334 339 342 343 343 343 343 349 346 345 345 338 344 351 354 353 350 350 345 344 345 344 345 345 343 339 342 342 336 343 339 347 347 347 346 346 344 344 343 345 346 347 346
330 333 334 334 332 334 337 337 338 338 340 340 340 350 351 349 343 341 338 340 347 351 353 351 346 344 343 343 344 345 345 340 338 344 338 336 337 345 345 346 345 343 344 343 345 347 346 346 346
330 332 329 328 329 334 337 334 335 338 338 336 340 340 350 350 349 346 339 344 343 342 355 355 353 351 350 347 343 344 344 340 343 344 346 336 340 344 346 344 345 344 343 344 346 347 347 346 345
332 327 329 332 334 335 336 337 333 335 337 337 336 339 341 342 347 345 348 351 353 345 348 349 354 353 352 351 348 343 342 340 345 346 341 340 343 346 345 347 347 347 346 345 345 346 347 346 347
329 326 328 335 337 338 338 337 338 335 335 335 337 338 340 342 346 345 343 354 357 355 353 355 356 356 354 352 352 349 347 346 346 342 342 342 347 346 348 344 346 347 347 345 344 346 347 347 346
330 328 326 327 331 336 337 338 335 335 334 335 334 338 340 341 342 346 353 356 358 356 357 356 352 350 349 347 347 346 344 343 343 345 347 346 344 344 346 345 342 344 346 346 345 344 346 346 346
327 327 330 323 329 331 339 340 337 337 335 335 336 340 339 340 347 356 355 358 359 355 352 352 350 347 345 344 342 343 344 347 348 347 346 343 346 346 344 343 342 345 344 345 345 344 345 346 345
326 327 323 323 324 330 342 339 333 336 334 338 341 347 343 347 353 356 356 356 354 352 350 350 347 343 342 346 348 348 347 347 347 347 343 345 344 344 345 344 344 343 341 344 345 345 345 345 345
324 324 322 323 326 327 331 333 331 334 335 336 345 350 351 352 353 356 356 354 353 352 352 349 344 343 343 350 351 349 350 348 347 348 347 345 346 347 344 342 343 342 342 342 344 345 346 346 347
Wind_Speed
6 4 4 6 5 4 8 3 3 5 5 4 11 12 9 10 1 3 25 30 34 33 30 28 26 25 25 24 21 20 22 23 22 19 17 16 17 18 17 17 14 13 13 13 13 14 15 16 17
5 6 6 6 5 3 5 4 6 3 12 22 19 12 9 5 10 24 34 27 33 32 30 27 27 26 26 23 21 20 21 22 20 17 16 15 16 17 17 15 12 11 13 13 14 15 15 15 16
3 3 5 4 4 5 3 6 10 8 9 7 6 10 7 11 24 33 27 31 33 31 29 27 26 26 25 23 21 19 20 20 18 17 15 15 14 15 15 12 11 10 12 11 13 15 15 14 17
5 4 8 5 10 15 6 6 21 11 15 21 19 7 10 16 25 25 27 30 33 30 28 26 25 26 25 22 20 18 18 17 16 15 14 13 13 14 13 12 10 10 12 13 14 15 15 14 16
5 6 4 4 11 6 5 10 23 13 10 15 14 6 15 16 19 29 26 30 32 29 28 25 24 25 23 21 19 17 16 16 15 14 13 12 11 12 12 10 10 10 10 12 14 15 15 13 12
4 4 3 3 5 10 8 11 19 16 18 17 16 14 7 26 31 29 22 31 27 28 27 27 25 24 22 20 19 16 15 15 15 14 13 13 11 9 8 9 9 9 9 9 11 13 13 12 11
6 3 1 4 7 3 6 16 15 18 14 8 18 11 21 32 31 27 24 26 20 26 28 28 26 24 21 19 18 16 15 16 16 15 14 11 8 6 8 9 7 7 7 8 8 9 11 11 11
7 3 6 3 3 5 4 8 25 23 6 23 30 8 24 33 31 29 27 24 20 23 27 28 26 24 22 20 17 16 16 16 16 14 14 10 7 4 7 8 7 8 5 5 5 6 8 9 10
5 4 5 4 0 5 15 14 16 15 26 7 14 24 37 38 35 33 30 27 25 23 24 26 25 23 22 20 18 17 17 17 16 14 13 9 5 6 5 6 7 5 3 1 4 6 5 7 8
3 4 8 8 2 3 12 28 16 8 14 8 20 26 38 40 37 33 30 29 27 26 27 25 24 23 22 21 20 18 18 16 15 13 11 7 4 3 4 4 6 2 3 1 3 6 5 5 6
4 4 6 10 16 15 9 10 11 16 1 14 29 34 39 40 36 32 30 26 28 24 24 25 23 22 22 22 21 20 17 14 12 10 8 6 5 3 3 4 5 3 2 2 3 3 6 4 0
5 8 6 3 6 18 7 12 10 8 6 19 28 36 43 37 37 33 32 30 27 25 22 20 24 22 21 20 19 17 15 12 9 7 9 5 5 6 4 2 2 4 5 5 4 4 6 4 7
4 6 12 15 10 21 20 12 11 21 20 22 31 33 34 31 32 29 30 29 28 27 23 19 21 19 20 21 19 14 14 12 7 9 8 5 6 7 7 6 5 5 4 5 9 11 8 7 5
11 10 15 9 22 16 12 15 9 16 22 20 22 30 39 37 34 26 33 34 33 29 25 20 18 17 15 22 19 13 16 12 8 7 7 8 8 6 6 9 11 9 7 7 8 8 7 7 7
4 3 3 5 16 6 20 1 8 26 23 24 24 24 30 33 33 29 29 34 33 31 27 23 19 19 17 18 17 16 13 13 11 6 6 5 8 6 4 7 8 5 5 7 8 8 7 7 9
6 5 1 6 9 11 6 7 9 28 26 24 25 24 30 25 28 35 33 21 34 34 31 24 23 24 22 21 20 18 16 14 10 9 7 5 5 7 5 7 4 5 4 10 9 9 7 7 6
4 4 3 7 12 6 5 7 10 26 26 24 26 22 23 28 32 28 37 29 23 34 32 29 28 29 27 24 24 21 19 19 13 12 11 8 8 8 8 8 5 4 6 11 11 9 7 8 8
4 3 5 6 6 8 6 8 6 21 23 24 24 17 11 10 8 29 26 29 31 27 35 31 32 34 30 30 29 25 24 19 18 14 12 11 10 8 9 6 7 8 6 12 13 11 10 9 9
7 8 8 6 4 6 8 4 11 21 12 10 17 11 13 7 23 23 30 27 34 34 33 38 37 36 35 36 34 31 29 23 24 22 17 14 12 10 12 10 10 10 8 10 15 13 12 11 12
11 17 13 3 6 4 5 3 4 11 10 20 17 19 19 21 21 17 34 35 32 34 34 40 40 38 39 40 37 36 30 29 28 25 20 17 16 14 12 11 11 12 12 11 14 15 12 12 13
10 11 5 6 3 7 0 3 4 4 8 17 15 24 22 28 26 21 36 32 36 35 37 36 42 41 40 41 38 36 28 25 27 26 22 18 15 16 14 12 12 12 14 13 12 16 14 12 12
7 9 2 5 4 2 3 3 4 4 5 6 10 11 26 30 37 25 33 32 37 34 37 36 38 39 39 38 39 38 33 29 25 24 26 22 16 14 15 13 12 13 15 15 17 19 17 15 13
10 7 2 4 4 5 8 4 7 7 9 11 12 25 29 31 41 37 20 27 33 30 31 34 33 34 32 34 36 33 31 26 26 24 27 26 22 20 14 14 14 15 15 13 14 19 18 17 15
12 3 8 6 4 3 3 3 6 3 6 7 19 29 36 38 42 41 27 22 29 24 25 27 30 30 27 23 32 32 30 25 24 27 27 25 20 16 15 14 14 15 17 15 14 19 17 20 17
3 6 3 4 4 5 5 2 9 10 7 8 9 28 28 27 33 38 28 23 26 27 29 30 28 25 22 20 24 29 32 30 26 23 21 19 14 12 11 12 14 12 13 15 14 18 18 20 19
6 8 6 4 3 5 3 5 6 7 9 8 14 21 25 25 22 26 29 22 20 26 27 27 25 20 23 23 23 23 24 24 19 18 16 17 13 9 8 4 11 12 10 12 16 20 19 18 21
3 3 8 7 2 3 2 6 10 8 9 13 7 20 26 29 26 29 31 24 23 20 21 20 16 16 19 16 18 18 19 20 18 12 12 12 9 8 8 4 9 8 14 13 13 19 22 18 18
9 6 2 3 2 3 4 5 6 7 7 5 4 16 30 31 24 25 26 26 25 17 14 14 14 16 17 19 19 18 17 15 14 12 9 8 10 10 7 4 5 4 10 10 12 15 20 19 19
2 2 6 5 5 5 3 6 6 4 6 3 5 25 29 33 34 33 31 26 20 17 14 13 18 21 21 17 16 15 15 13 12 14 11 9 7 7 9 7 7 3 8 6 10 14 17 19 19
8 10 7 5 5 3 5 5 4 7 8 1 18 24 33 34 36 37 36 31 26 22 20 19 22 22 18 17 15 12 14 16 16 17 15 11 8 8 7 9 10 9 8 8 6 11 14 14 16
Wind_Direction
22 329 347 20 56 45 314 264 4 120 90 95 115 122 103 40 342 172 147 162 160 157 155 154 150 148 145 142 139 137 133 134 129 129 131 130 132 128 131 122 102 90 107 112 113 113 113 115 123
64 62 92 49 69 20 272 294 53 100 133 108 97 81 56 85 89 135 150 161 160 156 155 155 152 150 146 141 137 135 135 136 131 128 121 118 127 132 134 126 103 92 111 107 111 109 111 118 124
100 139 80 80 130 210 187 225 113 102 137 135 96 68 79 109 119 144 152 164 162 158 156 155 154 152 149 144 137 135 138 139 133 130 124 118 124 129 130 124 111 98 108 112 112 114 115 118 124
180 95 75 45 292 260 245 134 124 130 82 103 99 65 77 132 145 154 153 163 164 160 157 158 158 156 154 149 145 140 143 140 133 132 130 122 124 132 132 128 119 108 112 108 118 120 119 122 129
23 75 87 139 216 253 216 146 155 154 136 111 105 99 130 157 148 145 155 165 166 161 162 163 163 159 158 155 151 147 148 146 137 135 130 125 124 138 141 136 129 120 121 112 116 125 123 122 136
54 86 79 260 253 214 180 121 115 121 121 107 92 97 98 150 148 156 152 160 166 165 169 166 166 163 163 161 158 156 153 150 142 137 134 125 121 129 140 138 131 130 129 126 122 126 135 137 145
118 82 134 270 258 155 106 126 124 124 130 123 125 120 138 146 162 158 150 157 161 171 167 167 168 167 168 167 165 164 160 156 148 144 137 125 118 118 145 144 134 127 127 129 132 128 133 145 155
136 100 335 253 275 83 137 93 143 141 111 136 136 152 162 162 166 162 161 161 163 171 172 170 171 173 174 175 175 171 168 163 160 153 148 137 117 95 171 153 142 118 112 125 138 135 130 136 162
130 90 248 265 1 180 127 97 116 125 140 155 198 170 165 166 167 164 165 164 168 174 182 177 176 177 179 180 181 177 175 171 168 166 162 146 110 92 94 150 150 90 47 120 157 158 157 149 160
122 146 213 211 306 321 114 124 129 116 130 80 106 148 160 169 173 172 173 170 173 177 185 188 185 184 185 184 186 183 181 179 176 178 178 170 137 130 84 172 182 239 329 260 208 188 189 204 204
183 171 188 267 258 246 121 109 117 115 232 161 143 156 159 174 179 180 185 187 181 180 183 195 198 194 193 191 188 185 182 183 184 191 184 197 203 157 98 74 209 262 210 289 172 207 235 231 26
222 226 189 270 21 107 95 104 81 207 165 156 161 162 168 177 182 186 188 189 181 184 187 191 200 200 197 193 187 182 181 183 187 178 179 172 195 196 200 174 160 207 209 223 252 252 245 254 232
244 184 217 246 111 126 109 109 120 110 156 156 156 165 172 177 186 192 195 200 191 191 192 192 192 192 196 189 178 186 186 177 176 191 195 187 172 186 201 222 237 246 256 248 248 237 263 268 272
207 212 185 169 127 135 132 139 101 145 153 162 159 179 185 185 187 198 193 205 198 199 200 188 188 188 184 188 183 178 179 171 187 201 208 222 214 230 230 251 264 258 249 241 209 215 237 259 283
230 132 129 198 154 146 124 281 112 153 182 164 168 173 184 201 193 194 193 202 205 207 203 200 197 200 200 192 194 198 190 194 199 214 219 297 255 259 296 267 272 246 237 193 218 233 242 259 283
298 69 272 249 141 174 160 250 141 172 164 168 174 183 194 197 211 199 193 206 208 207 207 209 204 204 203 201 203 206 210 207 211 229 234 268 248 270 277 284 270 236 231 208 222 236 227 251 272
335 208 230 302 199 153 175 241 154 173 168 175 184 190 194 211 218 213 199 205 211 212 213 211 208 205 203 201 203 202 204 201 212 224 231 229 272 284 288 281 270 259 238 207 224 232 228 254 263
244 214 242 225 214 179 173 238 150 167 186 192 200 191 153 37 294 238 214 208 218 217 222 220 212 207 207 205 207 205 210 216 222 227 221 246 259 269 289 278 294 284 248 216 222 239 237 260 258
272 263 247 239 256 149 214 208 181 184 186 154 191 184 181 118 52 327 244 223 213 219 222 218 214 211 208 207 209 209 206 220 227 234 240 239 250 266 278 283 294 290 270 239 230 243 240 248 244
270 284 251 307 200 125 242 210 199 166 156 199 202 206 191 156 89 236 224 225 227 225 225 219 220 215 212 211 215 214 220 225 235 237 241 247 257 265 268 286 291 279 264 240 231 237 245 240 239
275 270 206 188 161 54 273 54 167 202 163 190 196 223 193 198 183 218 215 222 225 226 224 223 218 216 212 213 217 218 213 219 227 232 241 252 265 271 277 290 290 271 257 248 238 233 240 230 235
269 256 37 110 90 120 351 270 273 273 231 195 200 189 201 199 208 211 219 216 213 223 225 225 217 218 214 220 222 225 220 232 236 239 237 242 256 268 270 280 284 269 262 259 249 227 225 220 226
245 257 169 174 104 97 354 84 263 162 221 233 179 184 193 200 201 209 215 219 219 223 226 224 215 223 225 230 225 226 226 232 243 249 239 243 255 264 268 279 270 264 259 260 222 211 212 219 218
236 118 39 41 72 56 257 115 287 270 235 144 192 198 191 206 217 221 221 204 213 221 227 230 227 229 233 230 227 226 229 232 251 241 248 240 252 260 274 278 268 261 255 240 218 211 212 212 212
159 67 10 6 5 216 263 203 238 256 240 230 224 193 196 207 214 224 221 219 220 223 226 229 227 233 236 232 229 231 234 238 245 242 230 236 248 260 268 269 270 262 241 233 217 211 213 214 212
192 147 147 202 215 255 283 227 256 270 313 295 263 230 191 192 211 222 221 211 203 210 217 224 228 231 238 230 224 223 227 229 218 213 227 236 239 251 258 283 272 241 233 229 216 208 214 214 213
192 140 190 133 60 85 266 278 305 272 296 353 318 210 202 206 214 214 202 205 200 197 204 212 215 216 218 205 200 197 188 188 197 214 221 218 219 207 239 267 319 264 217 214 217 216 215 214 214
152 167 89 21 195 233 298 296 231 316 333 300 59 188 211 206 205 199 188 185 191 186 186 191 194 189 175 165 166 174 182 193 201 211 231 221 225 224 224 256 309 313 186 197 201 214 217 219 222
45 112 61 118 135 148 168 259 204 209 229 176 154 175 183 187 190 188 183 181 185 181 180 184 176 172 162 162 166 173 185 193 204 213 217 186 186 204 219 228 222 126 135 146 188 201 217 219 218
176 188 138 136 256 207 166 264 320 170 257 168 133 170 175 179 188 188 183 183 185 180 183 181 172 170 175 169 172 169 183 191 199 205 190 200 212 205 204 212 199 185 168 139 164 198 208 207 216